FAD384 OERK-OEGS

Flight info

Callsign FAD384
Flight time 0h 43m
Altitude 26000
Route OERK/33R N0424F260 IVON1D IVONU Z710 GAS DCT OEGS/15
Aircraft A20N/M-SDE2E3FGHIRWXY/LB1

Departure

Time 2026-04-28 19:48
Airport King Khalid International Airport (OERK)

Arrival

Time 2026-04-28 20:32
Airport Prince Naif bin Abdulaziz International Airport (OEGS)
Time Latitude Longitude Altitude Speed Heading
2026-04-28 19:33 24.95344 46.70918 2044 ft 0 kts 240°
2026-04-28 19:34 24.95345 46.70921 2044 ft 3 kts 240°
2026-04-28 19:35 24.95359 46.70945 2044 ft 4 kts 235°
2026-04-28 19:35 24.95376 46.70969 2041 ft 4 kts 223°
2026-04-28 19:35 24.95397 46.70984 2037 ft 4 kts 184°
2026-04-28 19:35 24.95408 46.70983 2034 ft 1 kts 150°
2026-04-28 19:44 24.95406 46.70984 2036 ft 2 kts 150°
2026-04-28 19:44 24.95379 46.71001 2040 ft 7 kts 150°
2026-04-28 19:44 24.95332 46.71045 2038 ft 11 kts 109°
2026-04-28 19:45 24.95359 46.71134 2036 ft 15 kts 61°
2026-04-28 19:45 24.95415 46.71245 2038 ft 17 kts 64°
2026-04-28 19:45 24.95360 46.71330 2037 ft 16 kts 151°
2026-04-28 19:45 24.95249 46.71398 2037 ft 20 kts 150°
2026-04-28 19:46 24.95118 46.71484 2041 ft 24 kts 149°
2026-04-28 19:46 24.94965 46.71578 2038 ft 26 kts 150°
2026-04-28 19:46 24.94802 46.71682 2042 ft 29 kts 150°
2026-04-28 19:46 24.94621 46.71796 2035 ft 31 kts 150°
2026-04-28 19:47 24.94443 46.71908 2036 ft 29 kts 150°
2026-04-28 19:47 24.94298 46.72033 2042 ft 22 kts 96°
2026-04-28 19:47 24.94365 46.72181 2038 ft 23 kts 60°
2026-04-28 19:47 24.94481 46.72231 2039 ft 18 kts 332°
2026-04-28 19:48 24.94598 46.72156 2043 ft 42 kts 330°
2026-04-28 19:48 24.95146 46.71809 2040 ft 141 kts 330°
2026-04-28 19:48 24.96174 46.71155 2431 ft 188 kts 329°
2026-04-28 19:48 24.97415 46.70404 3065 ft 215 kts 333°
2026-04-28 19:49 24.98824 46.69739 3835 ft 228 kts 339°
2026-04-28 19:49 25.00363 46.69107 4580 ft 242 kts 340°
2026-04-28 19:49 25.01990 46.68462 5349 ft 258 kts 340°
2026-04-28 19:49 25.03727 46.67776 6262 ft 270 kts 340°
2026-04-28 19:50 25.07338 46.66347 8262 ft 281 kts 339°
2026-04-28 19:50 25.08998 46.65223 8791 ft 284 kts 313°
2026-04-28 19:50 25.09924 46.63319 8978 ft 286 kts 282°
2026-04-28 19:51 25.09811 46.61155 8999 ft 286 kts 252°
2026-04-28 19:51 25.09111 46.59094 8995 ft 288 kts 249°
2026-04-28 19:51 25.08439 46.57039 8993 ft 289 kts 252°
2026-04-28 19:51 25.07935 46.54900 8993 ft 289 kts 261°
2026-04-28 19:52 25.07725 46.52697 8993 ft 289 kts 266°
2026-04-28 19:52 25.07621 46.50481 8993 ft 289 kts 268°
2026-04-28 19:52 25.07552 46.48267 8993 ft 289 kts 268°
2026-04-28 19:52 25.07495 46.46053 8993 ft 289 kts 268°
2026-04-28 19:53 25.07444 46.43837 8993 ft 289 kts 268°
2026-04-28 19:53 25.07395 46.41620 8993 ft 289 kts 269°
2026-04-28 19:53 25.07347 46.39404 8994 ft 289 kts 269°
2026-04-28 19:53 25.07300 46.37187 8993 ft 289 kts 269°
2026-04-28 19:54 25.07253 46.34972 8993 ft 289 kts 269°
2026-04-28 19:54 25.07205 46.32754 9011 ft 289 kts 269°
2026-04-28 19:54 25.07156 46.30518 9508 ft 294 kts 269°
2026-04-28 19:54 25.07106 46.28242 10563 ft 302 kts 269°
2026-04-28 19:55 25.07053 46.25836 11193 ft 327 kts 269°
2026-04-28 19:55 25.06996 46.23267 11965 ft 342 kts 268°
2026-04-28 19:55 25.06936 46.20613 12955 ft 350 kts 268°
2026-04-28 19:55 25.06874 46.17905 13953 ft 356 kts 268°
2026-04-28 19:56 25.06811 46.15154 14907 ft 362 kts 268°
2026-04-28 19:56 25.06747 46.12360 15835 ft 367 kts 268°
2026-04-28 19:56 25.06681 46.09527 16758 ft 372 kts 268°
2026-04-28 19:56 25.06614 46.06652 17638 ft 378 kts 268°
2026-04-28 19:57 25.06545 46.03737 18489 ft 383 kts 268°
2026-04-28 19:57 25.06474 46.00786 19300 ft 388 kts 268°
2026-04-28 19:57 25.06402 45.97795 20093 ft 393 kts 268°
2026-04-28 19:57 25.06329 45.94764 20860 ft 398 kts 268°
2026-04-28 19:58 25.06254 45.91690 21600 ft 403 kts 268°
2026-04-28 19:58 25.06177 45.88591 22307 ft 407 kts 268°
2026-04-28 19:58 25.06099 45.85455 22994 ft 411 kts 268°
2026-04-28 19:58 25.06020 45.82282 23659 ft 415 kts 268°
2026-04-28 19:59 25.05939 45.79081 24296 ft 420 kts 268°
2026-04-28 19:59 25.05857 45.75854 24914 ft 423 kts 268°
2026-04-28 19:59 25.05773 45.72590 25512 ft 427 kts 268°
2026-04-28 19:59 25.05813 45.69305 25892 ft 430 kts 275°
2026-04-28 20:00 25.06403 45.66077 25990 ft 430 kts 288°
2026-04-28 20:00 25.07482 45.62997 25995 ft 432 kts 293°
2026-04-28 20:00 25.08729 45.59977 25994 ft 433 kts 295°
2026-04-28 20:00 25.10055 45.56998 25993 ft 433 kts 296°
2026-04-28 20:01 25.11407 45.54030 25994 ft 433 kts 296°
2026-04-28 20:01 25.12757 45.51062 25993 ft 433 kts 296°
2026-04-28 20:01 25.14095 45.48084 25993 ft 433 kts 296°
2026-04-28 20:01 25.15417 45.45104 25993 ft 433 kts 296°
2026-04-28 20:02 25.16728 45.42117 25993 ft 433 kts 296°
2026-04-28 20:02 25.18036 45.39118 25993 ft 433 kts 295°
2026-04-28 20:02 25.19336 45.36123 25993 ft 433 kts 295°
2026-04-28 20:02 25.20638 45.33123 25993 ft 433 kts 295°
2026-04-28 20:03 25.21939 45.30120 25993 ft 433 kts 295°
2026-04-28 20:03 25.23237 45.27123 25993 ft 433 kts 295°
2026-04-28 20:03 25.24537 45.24123 25994 ft 433 kts 295°
2026-04-28 20:03 25.25837 45.21121 25993 ft 433 kts 295°
2026-04-28 20:04 25.27135 45.18122 25993 ft 433 kts 295°
2026-04-28 20:04 25.28434 45.15119 25993 ft 433 kts 295°
2026-04-28 20:04 25.29715 45.12156 25993 ft 433 kts 295°
2026-04-28 20:04 25.31014 45.09150 25993 ft 433 kts 295°
2026-04-28 20:05 25.32312 45.06144 25993 ft 433 kts 295°
2026-04-28 20:05 25.33609 45.03137 25993 ft 433 kts 295°
2026-04-28 20:05 25.34905 45.00131 25993 ft 433 kts 295°
2026-04-28 20:05 25.36193 44.97142 25988 ft 424 kts 295°
2026-04-28 20:06 25.37432 44.94264 25986 ft 405 kts 295°
2026-04-28 20:06 25.38621 44.91502 25989 ft 393 kts 295°
2026-04-28 20:06 25.39788 44.88787 25993 ft 391 kts 295°
2026-04-28 20:06 25.40956 44.86069 25994 ft 391 kts 295°
2026-04-28 20:07 25.41744 44.84233 25994 ft 391 kts 295°
2026-04-28 20:07 25.42516 44.82435 25993 ft 391 kts 295°
2026-04-28 20:07 25.44454 44.77917 25993 ft 391 kts 295°
2026-04-28 20:07 25.45621 44.75196 25993 ft 391 kts 295°
2026-04-28 20:08 25.46407 44.73361 25993 ft 391 kts 295°
2026-04-28 20:08 25.47572 44.70641 25994 ft 391 kts 295°
2026-04-28 20:08 25.48735 44.67922 25993 ft 391 kts 295°
2026-04-28 20:08 25.49886 44.65232 25993 ft 391 kts 295°
2026-04-28 20:09 25.51049 44.62512 25993 ft 391 kts 295°
2026-04-28 20:09 25.52242 44.59763 25991 ft 391 kts 298°
2026-04-28 20:09 25.53733 44.57302 25992 ft 391 kts 310°
2026-04-28 20:09 25.55562 44.55079 25994 ft 391 kts 314°
2026-04-28 20:10 25.57487 44.52952 25993 ft 391 kts 316°
2026-04-28 20:10 25.59470 44.50883 25993 ft 391 kts 317°
2026-04-28 20:10 25.61471 44.48847 25993 ft 391 kts 317°
2026-04-28 20:10 25.63484 44.46814 25993 ft 391 kts 317°
2026-04-28 20:11 25.65488 44.44783 25993 ft 391 kts 317°
2026-04-28 20:11 25.67492 44.42741 25993 ft 391 kts 317°
2026-04-28 20:11 25.69489 44.40693 25993 ft 391 kts 317°
2026-04-28 20:11 25.71482 44.38642 26010 ft 391 kts 317°
2026-04-28 20:12 25.73469 44.36591 25762 ft 390 kts 317°
2026-04-28 20:12 25.75449 44.34544 25359 ft 387 kts 317°
2026-04-28 20:12 25.77420 44.32504 24747 ft 388 kts 317°
2026-04-28 20:12 25.79368 44.30488 24386 ft 375 kts 317°
2026-04-28 20:13 25.81235 44.28554 24086 ft 359 kts 317°
2026-04-28 20:13 25.83025 44.26700 23784 ft 345 kts 317°
2026-04-28 20:13 25.84754 44.24908 23352 ft 336 kts 317°
2026-04-28 20:13 25.86452 44.23148 22823 ft 331 kts 317°
2026-04-28 20:14 25.88124 44.21414 22261 ft 328 kts 317°
2026-04-28 20:14 25.89782 44.19695 21685 ft 324 kts 317°
2026-04-28 20:14 25.91441 44.17973 20793 ft 330 kts 317°
2026-04-28 20:14 25.93143 44.16206 19772 ft 340 kts 317°
2026-04-28 20:15 25.94928 44.14352 19070 ft 365 kts 317°
2026-04-28 20:15 25.96818 44.12389 18440 ft 375 kts 317°
2026-04-28 20:15 25.98723 44.10410 17805 ft 374 kts 317°
2026-04-28 20:15 26.00620 44.08438 17169 ft 371 kts 317°
2026-04-28 20:16 26.02492 44.06490 16545 ft 367 kts 317°
2026-04-28 20:16 26.04351 44.04556 15914 ft 364 kts 317°
2026-04-28 20:16 26.06190 44.02641 15324 ft 361 kts 317°
2026-04-28 20:16 26.08012 44.00743 14713 ft 357 kts 317°
2026-04-28 20:17 26.09820 43.98858 14106 ft 354 kts 317°
2026-04-28 20:17 26.11607 43.96995 13498 ft 351 kts 317°
2026-04-28 20:17 26.13378 43.95147 12910 ft 348 kts 317°
2026-04-28 20:17 26.15111 43.93339 12335 ft 344 kts 317°
2026-04-28 20:18 26.16850 43.91523 11757 ft 342 kts 317°
2026-04-28 20:18 26.18016 43.90305 11370 ft 340 kts 317°
2026-04-28 20:18 26.20286 43.87933 10600 ft 336 kts 317°
2026-04-28 20:18 26.21965 43.86178 10219 ft 320 kts 317°
2026-04-28 20:19 26.23524 43.84548 10119 ft 294 kts 317°
2026-04-28 20:19 26.24960 43.83045 10037 ft 274 kts 316°
2026-04-28 20:19 26.26321 43.81621 9958 ft 268 kts 316°
2026-04-28 20:19 26.27694 43.80183 9597 ft 271 kts 316°
2026-04-28 20:20 26.29083 43.78763 9202 ft 270 kts 321°
2026-04-28 20:20 26.30641 43.77611 8826 ft 268 kts 329°
2026-04-28 20:20 26.32263 43.76591 8459 ft 267 kts 331°
2026-04-28 20:20 26.33894 43.75611 8114 ft 266 kts 332°
2026-04-28 20:21 26.35523 43.74648 7764 ft 264 kts 332°
2026-04-28 20:21 26.37146 43.73695 7415 ft 263 kts 332°
2026-04-28 20:21 26.38802 43.72726 7315 ft 276 kts 332°
2026-04-28 20:21 26.40518 43.71722 7267 ft 280 kts 332°
2026-04-28 20:22 26.42249 43.70711 7226 ft 281 kts 332°
2026-04-28 20:22 26.43985 43.69697 7171 ft 281 kts 332°
2026-04-28 20:22 26.45719 43.68683 7120 ft 281 kts 332°
2026-04-28 20:22 26.47453 43.67670 7071 ft 281 kts 332°
2026-04-28 20:23 26.49111 43.66533 7020 ft 277 kts 320°
2026-04-28 20:23 26.50281 43.64855 6959 ft 271 kts 293°
2026-04-28 20:23 26.50621 43.62895 6847 ft 248 kts 267°
2026-04-28 20:23 26.50217 43.61135 6661 ft 226 kts 243°
2026-04-28 20:24 26.49307 43.59802 6439 ft 209 kts 221°
2026-04-28 20:24 26.48124 43.58989 6252 ft 193 kts 201°
2026-04-28 20:24 26.46863 43.58686 6088 ft 178 kts 183°
2026-04-28 20:24 26.45689 43.58817 5908 ft 163 kts 166°
2026-04-28 20:25 26.44693 43.59267 5717 ft 147 kts 150°
2026-04-28 20:25 26.43907 43.59926 5467 ft 137 kts 136°
2026-04-28 20:25 26.43313 43.60740 5244 ft 135 kts 122°
2026-04-28 20:25 26.42910 43.61678 5209 ft 134 kts 109°
2026-04-28 20:26 26.42713 43.62689 5181 ft 133 kts 95°
2026-04-28 20:26 26.42731 43.63719 5136 ft 133 kts 82°
2026-04-28 20:26 26.42957 43.64717 5087 ft 133 kts 71°
2026-04-28 20:26 26.43249 43.65694 5034 ft 133 kts 72°
2026-04-28 20:27 26.43466 43.66695 4987 ft 133 kts 82°
2026-04-28 20:27 26.43476 43.67723 4936 ft 133 kts 96°
2026-04-28 20:27 26.43263 43.68720 4886 ft 133 kts 110°
2026-04-28 20:27 26.42844 43.69634 4772 ft 133 kts 124°
2026-04-28 20:28 26.42243 43.70411 4569 ft 132 kts 137°
2026-04-28 20:28 26.41500 43.71008 4343 ft 132 kts 150°
2026-04-28 20:28 26.40692 43.71484 4116 ft 131 kts 153°
2026-04-28 20:28 26.39881 43.71944 3894 ft 131 kts 153°
2026-04-28 20:29 26.39071 43.72403 3695 ft 130 kts 153°
2026-04-28 20:29 26.38263 43.72859 3518 ft 130 kts 153°
2026-04-28 20:29 26.37456 43.73315 3338 ft 130 kts 153°
2026-04-28 20:29 26.36655 43.73777 3143 ft 130 kts 152°
2026-04-28 20:30 26.35868 43.74252 3002 ft 129 kts 151°
2026-04-28 20:30 26.35073 43.74710 2856 ft 128 kts 153°
2026-04-28 20:30 26.34273 43.75156 2713 ft 129 kts 153°
2026-04-28 20:30 26.33478 43.75611 2563 ft 128 kts 153°
2026-04-28 20:31 26.32687 43.76065 2420 ft 128 kts 153°
2026-04-28 20:31 26.31888 43.76502 2258 ft 128 kts 153°
2026-04-28 20:31 26.31102 43.76951 2141 ft 126 kts 153°
2026-04-28 20:31 26.30354 43.77375 2138 ft 110 kts 153°
2026-04-28 20:32 26.29806 43.77683 2138 ft 46 kts 158°
2026-04-28 20:32 26.29544 43.77724 2137 ft 25 kts 184°
2026-04-28 20:32 26.29436 43.77673 2136 ft 16 kts 271°
2026-04-28 20:32 26.29513 43.77600 2136 ft 15 kts 332°
2026-04-28 20:33 26.29608 43.77544 2135 ft 15 kts 333°
2026-04-28 20:33 26.29705 43.77489 2137 ft 16 kts 333°
2026-04-28 20:33 26.29808 43.77431 2137 ft 17 kts 333°
2026-04-28 20:33 26.29919 43.77369 2137 ft 18 kts 333°
2026-04-28 20:34 26.30036 43.77303 2138 ft 19 kts 333°
2026-04-28 20:34 26.30161 43.77232 2138 ft 21 kts 333°
2026-04-28 20:34 26.30246 43.77119 2137 ft 19 kts 305°
2026-04-28 20:34 26.30357 43.77041 2139 ft 19 kts 334°
2026-04-28 20:35 26.30483 43.76977 2139 ft 20 kts 337°
2026-04-28 20:35 26.30595 43.76971 2140 ft 12 kts 327°
2026-04-28 20:35 26.30602 43.76920 2140 ft 7 kts 243°
2026-04-28 20:35 26.30589 43.76895 2138 ft 0 kts 242°